This is the latest recevied weather packets stored in our database for station/object AD8AK. If no packets are shown the sender has not sent any weather packets the latest 10 day(s).
| Time | Temp. | Humidity | Pressure | Rain* | Wind** | Luminosity | Snow |
|---|---|---|---|---|---|---|---|
| 1777750250 | 8.33° C | 48% | 1017.4 hPa | 0 mm | - | - | - |
| 1777749945 | 8.33° C | 48% | 1017.4 hPa | 0 mm | - | - | - |
| 1777749643 | 8.33° C | 49% | 1017.6 hPa | 0 mm | - | - | - |
| 1777749340 | 7.78° C | 50% | 1017.3 hPa | 0 mm | - | - | - |
| 1777749038 | 8.33° C | 50% | 1017.4 hPa | 0 mm | - | - | - |
| 1777748735 | 8.33° C | 50% | 1017.6 hPa | 0 mm | - | - | - |
| 1777748432 | 8.89° C | 48% | 1017.8 hPa | 0 mm | - | - | - |
| 1777748127 | 8.89° C | 46% | 1017.8 hPa | 0 mm | - | - | - |
| 1777747824 | 8.89° C | 50% | 1017.8 hPa | 0 mm | - | - | - |
| 1777747520 | 8.33° C | 46% | 1017.6 hPa | 0 mm | - | - | - |
| 1777747216 | 8.33° C | 47% | 1017.9 hPa | 0 mm | - | - | - |
| 1777746912 | 8.33° C | 44% | 1018 hPa | 0 mm | - | - | - |
| 1777746608 | 8.33° C | 46% | 1017.9 hPa | 0 mm | - | - | - |
| 1777746303 | 8.33° C | 46% | 1017.8 hPa | 0 mm | - | - | - |
| 1777746000 | 8.33° C | 46% | 1017.8 hPa | 0 mm | - | - | - |
| 1777745698 | 8.33° C | 46% | 1017.9 hPa | 0 mm | - | - | - |
| 1777745396 | 8.89° C | 48% | 1018 hPa | 0 mm | - | - | - |
| 1777745093 | 8.89° C | 50% | 1017.6 hPa | 0 mm | - | - | - |
| 1777744789 | 8.89° C | 48% | 1017.9 hPa | 0 mm | - | - | - |
| 1777744483 | 8.33° C | 50% | 1018.1 hPa | 0 mm | - | - | - |
| 1777744180 | 7.78° C | 49% | 1018.1 hPa | 0 mm | - | - | - |
| 1777743877 | 8.33° C | 46% | 1018.3 hPa | 0 mm | - | - | - |
| 1777743574 | 8.33° C | 46% | 1018 hPa | 0 mm | - | - | - |
| 1777743270 | 8.33° C | 51% | 1018.2 hPa | 0 mm | - | - | - |
| 1777742970 | 7.78° C | 50% | 1018.1 hPa | 0 mm | - | - | - |
* Rain latest hour (hover to see other rain measurements)
** Current wind speed in m/s (hover to see current wind gust speed)